Date,TemperatureHighF,TemperatureAvgF,TemperatureLowF,DewpointHighF,DewpointAvgF,DewpointLowF,HumidityHigh,HumidityAvg,HumidityLow,PressureMaxIn,PressureMinIn,WindSpeedMaxMPH,WindSpeedAvgMPH,GustSpeedMaxMPH,PrecipitationSumIn
2013-1-1,74.3,61.1,54.3,70.8,60.4,53.7,98,98,89,29.93,29.76,8,1,0,0.21
2013-1-2,55.6,49.9,44.1,55.0,49.1,43.6,98,97,92,30.05,29.87,8,3,0,0.06
2013-1-3,47.8,40.9,32.4,43.4,37.1,31.9,98,87,66,30.20,30.05,8,2,0,0.05
2013-1-4,57.2,42.6,33.3,43.0,34.1,-99.9,98,76,45,30.28,30.14,11,-10,0,0.00
2013-1-5,51.1,45.8,39.2,44.9,40.5,36.1,92,82,72,30.17,30.03,5,0,0,0.00
2013-1-6,51.1,46.8,42.6,50.6,45.7,42.1,98,96,80,30.07,29.97,7,1,0,0.23
2013-1-7,62.8,47.7,35.6,49.1,42.3,35.1,98,84,45,30.11,29.98,7,1,0,0.00
2013-1-8,65.8,56.4,45.0,64.9,55.1,42.9,98,95,89,30.04,29.90,8,1,0,0.00
2013-1-9,70.3,66.5,62.2,69.7,65.9,61.6,98,98,98,30.00,29.91,9,3,0,0.00
2013-1-10,71.6,66.7,61.9,71.0,66.1,61.3,98,98,98,29.98,29.72,11,4,0,0.34
2013-1-11,77.7,69.8,62.2,77.1,69.2,61.6,98,98,98,29.91,29.80,7,2,0,0.00
2013-1-12,77.9,71.8,68.4,77.3,71.2,67.8,98,98,98,29.86,29.69,8,3,0,0.00
2013-1-13,75.9,69.9,57.6,75.3,69.3,57.0,98,98,98,29.78,29.66,7,2,0,0.01
2013-1-14,57.4,51.3,43.2,56.8,50.8,42.7,98,98,98,29.90,29.77,10,2,0,0.26
2013-1-15,58.5,51.8,43.5,57.9,51.2,43.0,98,98,98,29.86,29.73,5,0,0,0.04
2013-1-16,52.7,45.7,39.2,52.2,45.2,38.7,98,98,98,29.90,29.73,9,2,0,0.20
2013-1-17,52.0,42.2,35.6,48.2,40.5,35.1,98,94,72,30.19,29.90,12,3,0,0.00
2013-1-18,58.8,43.8,34.7,51.7,41.0,34.2,98,91,61,30.34,30.18,7,1,0,0.00
2013-1-19,65.5,47.3,33.6,63.4,45.9,33.1,98,95,76,30.19,30.01,4,0,0,0.03
2013-1-20,67.5,48.8,34.7,66.9,48.1,34.2,98,97,73,30.09,29.92,4,0,0,0.00
2013-1-21,65.7,51.1,36.3,59.3,48.1,35.8,98,91,63,30.01,29.92,6,1,0,0.00
2013-1-22,62.4,46.6,37.2,56.0,42.5,35.8,98,88,53,30.18,30.01,6,1,0,0.00
2013-1-23,69.3,50.5,34.0,66.9,49.6,33.5,98,97,82,30.20,30.05,6,0,0,0.00
2013-1-24,72.0,55.4,38.7,71.4,54.8,38.2,98,98,98,30.11,29.98,3,0,0,0.00
2013-1-25,72.7,58.3,43.7,72.1,57.7,43.2,98,98,98,30.05,29.91,9,1,0,0.00
2013-1-26,73.2,59.1,48.0,72.6,58.5,47.5,98,98,98,30.02,29.94,4,0,0,0.00
2013-1-27,73.6,59.0,48.6,73.0,58.4,48.1,98,98,98,30.07,29.97,3,0,0,0.00
2013-1-28,76.6,65.8,56.1,76.0,65.2,55.5,98,98,98,30.02,29.87,7,2,0,0.01
2013-1-29,75.4,70.2,67.3,74.8,69.6,66.7,98,98,98,29.87,29.57,9,2,0,0.14
2013-1-30,71.8,59.6,41.7,71.2,59.0,41.2,98,98,98,29.88,29.41,14,2,0,1.22
2013-1-31,60.1,45.0,31.3,47.5,38.2,30.8,98,82,36,30.08,29.90,6,1,0,0.00
2013-2-1,61.5,45.5,36.5,55.2,42.7,36.0,98,91,56,30.17,30.07,6,1,0,0.00
2013-2-2,65.7,48.0,30.2,64.7,45.6,29.7,98,93,59,30.11,29.93,6,1,0,0.00
2013-2-3,68.2,52.9,40.8,60.4,47.0,38.5,98,84,35,30.02,29.86,8,1,0,0.00
2013-2-4,64.8,50.9,37.9,64.2,50.3,37.4,98,98,98,29.87,29.72,4,0,0,0.23
2013-2-5,68.5,60.1,53.2,67.9,59.5,52.6,98,98,98,29.77,29.68,8,1,0,0.50
2013-2-6,70.2,60.1,53.2,69.6,59.5,52.6,98,98,98,29.88,29.73,7,1,0,0.02
2013-2-7,78.6,63.7,51.6,78.0,63.1,51.1,98,98,98,29.74,29.54,9,2,0,2.44
2013-2-8,74.7,59.8,48.7,74.1,59.2,48.2,98,98,98,29.91,29.68,5,1,0,0.00
2013-2-9,66.2,55.4,45.5,65.6,54.9,45.0,98,98,98,29.99,29.86,7,2,0,0.00
2013-2-10,71.4,66.7,55.8,70.8,66.1,55.2,98,98,98,29.86,29.70,11,4,0,0.07
2013-2-11,68.7,62.0,57.2,68.1,61.4,56.6,98,98,98,29.87,29.73,10,2,0,0.93
2013-2-12,69.1,62.0,56.5,68.5,61.4,55.9,98,98,98,29.81,29.51,6,2,0,0.10
2013-2-13,67.1,52.0,40.8,66.5,51.5,40.3,98,98,98,29.85,29.53,6,1,0,0.26
2013-2-14,61.0,46.1,38.1,57.9,45.2,37.6,98,97,68,29.94,29.79,5,0,0,0.00
2013-2-15,66.6,48.8,33.4,59.0,45.1,32.9,98,89,49,29.94,29.80,6,1,0,0.00
2013-2-16,54.1,45.7,30.2,48.2,35.3,23.0,98,72,33,30.10,29.86,15,3,0,0.00
2013-2-17,56.8,40.4,26.2,47.5,34.8,25.7,98,83,42,30.20,30.00,5,1,0,0.00
2013-2-18,66.6,52.9,33.8,65.8,52.4,33.3,98,98,97,30.01,29.74,16,3,0,0.00
2013-2-19,67.3,58.2,40.3,64.2,51.2,36.2,99,82,36,30.00,29.70,10,2,0,0.52
2013-2-20,59.4,47.7,37.8,40.3,36.2,32.4,98,69,38,30.06,29.87,8,3,0,0.00
2013-2-21,67.8,63.6,45.3,67.2,63.0,44.8,98,98,98,29.82,29.58,12,4,0,0.00
2013-2-22,69.3,64.1,57.9,68.7,63.5,57.3,98,98,98,29.71,29.59,5,1,0,2.12
2013-2-23,59.9,57.4,55.2,59.3,56.8,54.6,98,98,98,29.71,29.52,6,1,0,0.76
2013-2-24,70.3,58.8,46.0,69.7,58.2,45.5,98,98,98,29.75,29.54,9,1,0,0.44
2013-2-25,68.2,63.1,59.9,67.6,62.5,59.3,98,98,98,29.56,29.21,20,4,0,6.07
2013-2-26,63.5,54.5,47.1,59.8,52.9,46.6,98,95,75,29.66,29.25,15,2,0,0.00
2013-2-27,66.2,53.8,43.9,60.6,51.2,43.4,98,92,64,29.79,29.66,8,1,0,0.00
2013-2-28,60.4,48.8,39.4,49.3,43.0,34.2,98,83,42,29.86,29.74,9,1,0,0.00
2013-3-1,60.6,47.3,36.1,47.3,39.2,35.6,98,77,43,29.92,29.75,8,2,0,0.00
2013-3-2,49.6,39.0,28.4,38.7,33.4,27.9,98,82,62,30.00,29.87,11,3,0,0.00
2013-3-3,55.6,39.1,25.5,40.0,30.4,25.0,98,76,35,30.04,29.89,9,1,0,0.00
2013-3-4,67.6,52.5,31.1,64.2,50.4,30.6,98,93,70,29.90,29.70,9,1,0,0.00
2013-3-5,75.7,63.4,44.8,75.1,62.1,44.3,98,96,69,29.90,29.66,8,1,0,0.00
2013-3-6,61.7,47.8,35.6,44.3,38.5,33.0,98,75,40,30.06,29.90,14,2,0,0.00
2013-3-7,64.9,47.2,35.8,55.0,42.5,35.3,98,86,49,30.11,29.98,6,1,0,0.00
2013-3-8,71.6,51.6,33.8,58.6,45.5,33.3,98,83,38,30.08,29.94,6,1,0,0.00
2013-3-9,72.7,58.6,43.5,68.2,57.1,43.0,98,95,70,29.95,29.73,9,3,0,0.00
2013-3-10,77.7,68.0,62.1,77.1,67.4,61.5,98,98,98,29.76,29.59,14,6,0,0.00
2013-3-11,67.1,55.7,42.1,66.5,55.1,41.6,98,98,98,29.74,29.55,11,2,0,0.14
2013-3-12,66.0,50.4,36.9,49.3,43.1,36.4,98,80,44,29.94,29.74,9,1,0,0.00
2013-3-13,66.2,51.6,36.9,50.6,36.3,25.5,98,64,24,30.12,29.94,10,2,0,0.00
2013-3-14,66.9,49.2,34.7,47.6,37.0,27.9,98,68,28,30.21,30.04,7,1,0,0.00
2013-3-15,73.2,54.7,36.9,62.5,48.5,36.4,98,83,44,30.07,29.89,6,1,0,0.00
2013-3-16,78.6,61.3,45.5,72.6,59.0,45.0,98,93,66,29.87,29.70,6,1,0,0.00
2013-3-17,76.1,62.3,50.5,75.5,61.7,50.0,98,98,98,29.74,29.58,5,1,0,0.00
2013-3-18,82.0,71.1,63.9,81.4,70.5,63.3,98,98,98,29.63,29.48,6,1,0,0.00
2013-3-19,77.7,65.1,54.9,68.8,59.5,51.9,98,85,48,29.76,29.59,9,2,0,0.02
2013-3-20,66.9,56.0,42.4,54.6,45.4,39.0,98,70,39,29.85,29.70,10,2,0,0.03
2013-3-21,66.9,50.5,37.4,50.6,42.4,36.9,98,78,36,29.83,29.63,6,1,0,0.00
2013-3-22,70.0,59.9,45.7,66.9,58.6,45.2,98,96,82,29.65,29.55,9,3,0,0.03
2013-3-23,77.4,68.9,62.6,76.8,68.3,62.0,98,98,98,29.60,29.31,8,1,0,0.16
2013-3-24,77.5,65.9,47.8,74.6,59.4,36.8,98,81,46,29.69,29.29,13,3,0,0.00
2013-3-25,59.9,47.1,35.1,41.2,33.5,27.0,98,64,30,29.98,29.70,14,3,0,0.00
2013-3-26,56.3,43.9,30.2,37.8,32.9,29.3,98,69,39,30.13,29.98,8,2,0,0.00
2013-3-27,60.8,45.3,30.0,45.9,37.6,29.5,98,78,44,30.22,30.04,6,1,0,0.00
2013-3-28,68.4,49.9,32.4,53.0,42.4,31.9,98,80,40,30.12,30.00,5,1,0,0.00
2013-3-29,70.0,53.8,38.5,64.3,50.1,38.0,98,89,51,30.09,29.94,5,0,0,0.00
2013-3-30,77.2,60.7,45.5,69.9,57.9,45.0,98,92,62,29.94,29.79,6,1,0,0.00
2013-3-31,80.6,64.6,53.4,75.7,63.4,52.8,98,96,77,29.83,29.60,9,1,0,0.61
2013-4-1,75.0,62.5,52.9,72.3,59.5,52.4,98,91,63,29.83,29.67,6,1,0,0.01
2013-4-2,80.1,62.5,46.9,68.1,56.4,46.4,98,84,46,29.89,29.74,7,1,0,0.00
2013-4-3,64.4,59.5,54.5,63.8,58.9,53.9,98,98,98,29.82,29.54,17,2,0,3.09
2013-4-4,67.1,57.2,52.7,65.6,56.6,52.2,98,98,94,29.74,29.63,6,1,0,0.00
2013-4-5,68.9,55.6,47.3,56.9,52.2,46.8,98,90,62,29.89,29.73,9,2,0,0.00
2013-4-6,73.8,58.2,40.6,60.0,51.8,40.1,98,82,50,29.93,29.82,8,1,0,0.00
2013-4-7,78.1,61.8,45.9,67.7,57.7,45.4,98,88,59,29.88,29.75,8,1,0,0.00
2013-4-8,81.3,68.4,54.7,76.8,66.4,54.1,98,94,72,29.80,29.72,10,1,0,0.00
2013-4-9,82.2,74.7,70.0,79.8,73.6,69.4,98,97,85,29.80,29.69,11,4,0,0.00
2013-4-10,81.9,74.3,69.1,78.9,73.1,68.5,98,96,87,29.76,29.61,14,3,0,0.00
2013-4-11,81.5,70.4,56.3,80.9,69.8,55.7,98,98,97,29.60,29.34,8,2,0,1.54
2013-4-12,74.3,60.7,50.0,58.4,53.5,49.5,98,80,47,29.71,29.56,7,2,0,0.00
2013-4-13,79.2,62.5,47.7,64.5,56.2,47.2,98,83,43,29.78,29.60,8,1,0,0.00
2013-4-14,70.0,62.6,57.4,69.4,61.9,56.8,98,98,96,29.64,29.48,10,1,0,2.53
2013-4-15,79.9,71.9,64.9,78.7,71.3,64.3,98,98,94,29.76,29.56,6,1,0,0.00
2013-4-16,84.2,75.4,68.7,81.3,74.5,68.1,98,97,89,29.86,29.74,7,1,0,0.00
2013-4-17,85.1,74.1,67.6,84.5,73.5,67.0,98,98,98,29.86,29.73,7,1,0,0.00
2013-4-18,82.6,74.5,66.6,82.0,73.9,66.0,98,98,98,29.74,29.58,10,2,0,0.00
2013-4-19,75.6,55.1,43.5,75.0,54.6,43.0,98,98,98,29.95,29.55,9,2,0,1.46
2013-4-20,68.7,53.3,39.0,53.0,45.6,38.5,98,79,47,30.03,29.86,6,1,0,0.00
2013-4-21,75.0,58.3,43.0,65.6,51.9,42.5,98,83,41,29.98,29.84,6,1,0,0.00
2013-4-22,79.9,63.4,47.8,76.0,61.4,47.3,98,94,70,29.89,29.76,7,1,0,0.00
2013-4-23,77.0,67.2,57.4,76.4,66.6,56.8,98,98,98,29.86,29.76,6,1,0,0.00
2013-4-24,72.9,68.4,61.0,72.3,67.8,60.4,98,98,98,29.90,29.76,11,1,0,0.62
2013-4-25,75.2,62.5,54.7,69.5,59.6,54.1,98,91,70,30.04,29.90,6,1,0,0.00
2013-4-26,80.6,66.0,52.0,67.9,59.2,51.5,98,81,49,30.04,29.96,3,0,0,0.00
2013-4-27,81.5,70.1,60.3,76.9,68.4,59.7,98,95,82,29.97,29.80,5,1,0,0.00
2013-4-28,79.9,69.9,63.7,79.3,69.3,63.1,98,98,98,29.82,29.68,7,0,0,0.08
2013-4-29,82.6,70.2,64.6,77.2,69.2,64.0,98,97,75,29.73,29.63,3,0,0,0.33
2013-4-30,80.2,70.2,62.6,79.6,69.6,62.0,98,98,98,29.69,29.60,10,0,0,1.13
2013-5-1,80.6,70.1,64.4,80.0,69.5,63.8,98,98,98,29.65,29.55,7,1,0,5.64
2013-5-2,74.8,68.2,64.4,74.2,67.6,63.8,98,98,98,29.71,29.60,6,0,0,0.64
2013-5-3,75.2,64.6,48.4,74.6,64.0,47.9,98,98,98,29.74,29.56,10,1,0,0.24
2013-5-4,70.3,56.4,42.6,55.9,47.4,42.1,98,76,40,29.76,29.61,12,2,0,0.00
2013-5-5,66.7,59.1,47.3,60.0,52.5,46.8,98,81,55,29.77,29.59,10,2,0,0.00
2013-5-6,75.4,59.7,44.4,63.6,55.0,43.9,98,86,58,29.79,29.65,6,0,0,0.00
2013-5-7,78.3,64.7,51.1,70.5,61.3,50.6,98,90,61,29.80,29.71,3,0,0,0.00
2013-5-8,84.2,69.1,55.2,74.2,64.7,54.6,98,88,60,29.85,29.75,7,0,0,0.00
2013-5-9,81.7,70.2,58.5,75.0,67.2,57.9,98,91,71,29.88,29.79,8,1,0,0.00
2013-5-10,73.8,69.6,64.6,73.2,69.0,64.0,98,98,98,29.87,29.60,8,1,0,0.84
2013-5-11,77.4,68.9,62.2,76.8,68.3,61.6,98,98,98,29.77,29.62,0,0,0,0.55
2013-5-12,78.8,69.7,60.8,71.1,65.3,60.2,98,87,62,29.85,29.71,6,0,0,0.00
2013-5-13,77.9,62.6,50.9,65.2,56.5,50.1,98,84,42,30.01,29.84,5,0,0,0.00
2013-5-14,84.2,67.6,52.0,70.1,61.0,51.5,98,83,48,30.00,29.87,5,0,0,0.00
2013-5-15,85.1,69.7,55.6,73.9,62.8,55.0,98,82,46,29.93,29.75,4,0,0,0.00
2013-5-16,82.8,74.3,64.8,78.7,73.0,64.2,98,96,83,29.77,29.68,5,1,0,0.00
2013-5-17,85.1,77.3,71.6,82.3,76.3,71.0,98,97,89,29.77,29.67,7,1,0,0.00
2013-5-18,86.7,79.0,74.1,82.7,77.4,73.5,98,95,81,29.79,29.71,5,1,0,0.00
2013-5-19,83.3,77.9,73.4,82.7,77.3,72.8,98,98,98,29.76,29.69,4,0,0,0.00
2013-5-20,88.9,79.1,71.4,83.5,77.3,70.8,98,95,74,29.74,29.67,5,0,0,0.00
2013-5-21,86.9,78.2,68.9,81.9,76.2,68.3,98,94,79,29.71,29.59,5,1,0,0.00
2013-5-22,82.6,73.4,68.2,81.3,72.5,67.6,98,97,88,29.76,29.59,5,0,0,0.80
2013-5-23,91.9,77.1,64.9,80.6,74.1,64.3,98,91,64,29.76,29.65,4,0,0,0.00
2013-5-24,88.7,78.6,69.4,75.9,72.4,66.7,98,83,62,29.91,29.72,5,1,0,0.00
2013-5-25,88.3,72.9,60.1,70.4,64.8,58.1,98,78,47,29.99,29.82,4,0,0,0.00
2013-5-26,87.4,74.1,61.0,73.5,68.0,60.4,98,83,55,29.90,29.80,6,0,0,0.00
2013-5-27,86.0,77.4,67.3,77.5,71.9,66.7,98,85,58,29.90,29.80,7,1,0,0.00
2013-5-28,86.7,74.5,61.3,78.4,70.6,60.7,98,89,63,29.84,29.73,6,1,0,0.04
2013-5-29,86.7,78.0,70.3,86.1,77.4,69.7,98,98,98,29.79,29.71,10,2,0,0.01
2013-5-30,84.4,78.8,74.8,83.8,78.2,74.2,98,98,98,29.79,29.70,9,2,0,0.01
2013-5-31,85.6,79.4,74.8,85.0,78.8,74.2,98,98,98,29.78,29.70,7,1,0,0.01
2013-6-1,89.2,80.6,74.5,88.6,80.0,73.9,98,98,98,29.74,29.67,6,1,0,0.02
2013-6-2,91.0,78.8,69.6,85.5,76.7,69.0,98,94,65,29.75,29.61,6,0,0,0.18
2013-6-3,92.3,78.7,70.7,90.4,78.0,70.1,98,98,83,29.65,29.51,2,0,0,0.83
2013-6-4,91.0,81.9,73.9,90.4,81.3,73.3,98,98,98,29.68,29.59,4,0,0,0.06
2013-6-5,90.0,81.1,73.8,89.4,80.5,73.2,98,98,98,29.68,29.54,6,1,0,0.00
2013-6-6,90.9,77.1,66.2,82.0,73.9,65.6,98,91,64,29.60,29.48,4,0,0,0.01
2013-6-7,71.8,71.6,71.4,71.2,71.0,70.8,98,98,98,29.60,29.59,0,0,0,0.00
2013-6-8,90.1,78.7,69.4,88.2,77.2,68.8,98,95,81,29.76,29.59,5,0,0,0.07
2013-6-9,84.9,76.3,69.1,84.3,75.7,68.5,98,98,98,29.75,29.67,4,0,0,0.05
2013-6-10,88.3,78.6,73.0,87.6,78.0,72.4,98,98,94,29.79,29.71,3,0,0,0.69
2013-6-11,94.5,82.9,74.5,92.6,81.5,73.9,98,96,82,29.84,29.71,4,0,0,0.00
2013-6-12,93.9,83.3,73.2,93.2,81.6,72.6,98,95,74,29.84,29.73,3,0,0,0.00
2013-6-13,95.0,83.6,74.5,93.9,81.4,73.9,98,94,65,29.78,29.61,3,0,0,0.00
2013-6-14,93.4,85.2,75.0,91.3,80.8,74.4,98,88,55,29.69,29.56,5,1,0,0.00
2013-6-15,92.5,80.0,68.5,91.0,78.9,67.9,98,97,69,29.77,29.67,5,0,0,0.00
2013-6-16,93.2,81.3,73.4,92.5,80.7,72.8,98,98,98,29.78,29.70,1,0,0,0.54
2013-6-17,93.4,83.9,76.1,92.7,83.3,75.5,98,98,96,29.75,29.65,8,0,0,0.00
2013-6-18,92.3,84.1,76.5,90.4,82.7,75.9,98,96,83,29.75,29.63,6,0,0,0.01
2013-6-19,91.8,80.2,71.4,90.8,79.6,70.8,98,98,95,29.78,29.67,6,0,0,0.00
2013-6-20,94.5,78.1,72.0,90.5,77.3,71.4,98,98,84,29.84,29.75,4,0,0,0.41
2013-6-21,89.2,75.3,70.2,88.6,74.7,69.6,98,98,98,29.86,29.79,8,0,0,1.22
2013-6-22,90.3,76.3,71.1,89.7,75.7,70.5,98,98,98,29.85,29.76,3,0,0,0.65
2013-6-23,89.6,78.1,71.6,89.0,77.5,71.0,98,98,98,29.83,29.75,3,0,0,0.13
2013-6-24,90.0,79.8,74.5,89.0,78.8,73.9,98,97,77,29.90,29.78,3,0,0,0.33
2013-6-25,91.9,82.0,72.1,89.9,80.5,71.5,98,96,81,29.87,29.77,5,0,0,0.00
2013-6-26,93.9,82.8,73.8,88.5,80.8,73.2,98,94,74,29.81,29.69,4,0,0,0.01
2013-6-27,95.4,84.8,76.5,88.8,82.1,75.9,98,92,69,29.76,29.63,3,0,0,0.00
2013-6-28,96.6,85.5,77.5,89.4,82.5,76.9,98,91,71,29.68,29.48,6,0,0,0.00
2013-6-29,93.0,82.6,74.5,87.2,80.5,73.9,98,94,76,29.55,29.41,5,0,0,0.00
2013-6-30,94.3,80.9,72.1,83.4,74.5,68.0,98,84,46,29.52,29.44,4,0,0,0.00
2013-7-1,90.9,78.8,68.0,77.5,72.4,67.4,98,83,55,29.65,29.52,7,1,0,0.00
2013-7-2,92.1,78.5,67.6,80.1,74.4,67.0,98,88,59,29.75,29.63,4,0,0,0.00
2013-7-3,85.5,76.2,72.9,83.6,75.5,72.3,98,98,92,29.76,29.65,5,0,0,0.32
2013-7-4,91.2,79.6,72.3,88.5,79.0,71.7,98,98,90,29.73,29.65,5,0,0,0.39
2013-7-5,79.5,75.7,73.4,78.9,75.1,72.8,98,98,98,29.81,29.68,5,0,0,0.77
2013-7-6,81.0,75.8,73.0,80.4,75.2,72.4,98,98,98,29.79,29.71,1,0,0,1.89
2013-7-7,84.4,78.0,74.1,83.8,77.4,73.5,98,98,98,29.88,29.74,0,0,0,0.83
2013-7-8,90.9,78.9,74.1,90.3,78.3,73.5,98,98,98,29.90,29.81,4,0,0,0.07
2013-7-9,93.9,81.7,72.0,92.0,80.7,71.4,98,97,86,29.92,29.79,5,0,0,0.00
2013-7-10,96.6,80.3,74.1,91.4,79.2,73.5,98,97,78,29.85,29.72,4,0,0,0.30
2013-7-11,84.4,77.0,73.8,83.8,76.4,73.2,98,98,98,29.75,29.61,2,0,0,1.15
2013-7-12,94.8,77.8,71.2,91.6,77.0,70.6,98,97,86,29.68,29.56,5,0,0,0.06
2013-7-13,93.4,77.0,69.8,92.7,76.4,69.2,98,98,98,29.70,29.60,2,0,0,0.25
2013-7-14,94.5,80.3,70.9,93.8,79.7,70.3,98,98,98,29.77,29.65,4,0,0,0.00
2013-7-15,91.8,79.6,72.1,91.2,79.0,71.5,98,98,98,29.86,29.75,5,0,0,0.10
2013-7-16,84.6,78.6,74.1,84.0,78.0,73.5,98,98,98,29.93,29.83,5,0,0,0.32
2013-7-17,94.1,80.5,73.0,93.4,79.9,72.4,98,98,95,29.96,29.85,4,0,0,0.16
2013-7-18,94.3,79.6,73.2,93.6,79.0,72.6,98,98,98,29.91,29.71,2,0,0,0.15
2013-7-19,89.8,78.2,71.8,89.2,77.6,71.2,98,98,98,29.82,29.68,4,0,0,0.67
2013-7-20,93.2,80.8,73.8,92.5,80.2,73.2,98,98,98,29.75,29.66,2,0,0,0.00
2013-7-21,90.5,79.2,74.1,89.9,78.6,73.5,98,98,98,29.81,29.72,7,0,0,0.22
2013-7-22,87.8,78.8,73.4,87.2,78.2,72.8,98,98,98,29.81,29.72,2,0,0,0.85
2013-7-23,97.0,83.6,74.3,96.3,83.0,73.7,98,98,98,29.79,29.63,6,0,0,0.00
2013-7-24,97.3,83.6,76.5,96.6,83.0,75.9,98,98,98,29.71,29.62,2,0,0,0.00
2013-7-25,93.7,81.3,72.9,93.0,80.7,72.3,98,98,98,29.77,29.63,7,1,0,0.00
2013-7-26,97.0,82.1,71.2,96.1,80.7,70.6,98,96,64,29.80,29.67,1,0,0,0.00
2013-7-27,84.4,77.3,73.0,83.8,76.7,72.4,98,98,98,29.73,29.63,0,0,0,0.98
2013-7-28,91.4,80.9,74.7,90.8,80.3,74.1,98,98,98,29.74,29.62,4,0,0,0.00
2013-7-29,93.2,82.0,74.5,92.5,81.4,73.9,98,98,98,29.85,29.72,3,0,0,0.00
2013-7-30,93.7,83.1,74.8,93.0,82.5,74.2,98,98,98,29.89,29.77,5,0,0,0.06
2013-7-31,92.1,81.2,75.0,91.4,80.6,74.4,98,98,98,29.85,29.72,5,0,0,0.54
2013-8-1,94.6,81.0,74.8,93.9,80.4,74.2,98,98,98,29.75,29.64,6,0,0,0.00
2013-8-2,96.1,82.0,72.5,95.4,81.4,71.9,98,98,98,29.73,29.65,3,0,0,0.00
2013-8-3,98.4,83.2,73.0,97.7,82.6,72.4,98,98,98,29.74,29.65,2,0,0,0.00
2013-8-4,97.7,84.7,75.9,97.0,84.0,75.3,98,98,98,29.79,29.67,4,0,0,0.00
2013-8-5,94.3,80.6,74.7,93.6,79.9,74.1,98,98,98,29.78,29.64,9,0,0,0.18
2013-8-6,99.1,83.9,74.7,98.4,83.3,74.1,98,98,98,29.75,29.61,8,0,0,0.02
2013-8-7,93.4,82.2,74.5,92.7,81.6,73.9,98,98,98,29.71,29.62,2,0,0,0.35
2013-8-8,95.9,85.1,77.7,95.2,84.5,77.1,98,98,98,29.72,29.64,4,0,0,0.00
2013-8-9,92.7,82.5,75.7,92.0,81.9,75.1,98,98,98,29.78,29.67,4,0,0,0.09
2013-8-10,96.8,80.7,75.7,96.1,80.0,75.1,98,98,98,29.83,29.75,4,0,0,0.58
2013-8-11,95.2,82.9,74.7,94.5,82.2,74.1,98,98,98,29.87,29.80,5,0,0,0.00
2013-8-12,89.2,80.7,76.8,88.6,80.1,76.2,98,98,98,29.86,29.75,2,0,0,0.88
2013-8-13,96.8,80.3,74.1,96.1,79.7,73.5,98,98,98,29.78,29.67,5,0,0,0.68
2013-8-14,82.9,76.1,73.6,82.3,75.5,73.0,98,98,98,29.73,29.63,4,0,0,0.41
2013-8-15,89.4,78.5,73.4,88.8,77.9,72.8,98,98,98,29.73,29.65,3,0,0,0.01
2013-8-16,89.2,77.8,72.0,88.6,77.2,71.4,98,98,98,29.73,29.63,4,0,0,0.12
2013-8-17,78.4,75.2,72.5,77.8,74.6,71.9,98,98,98,29.74,29.66,4,0,0,0.04
2013-8-18,83.7,76.1,72.7,83.1,75.5,72.1,98,98,98,29.74,29.65,8,1,0,2.09
2013-8-19,94.1,79.4,71.4,93.4,78.8,70.8,98,98,98,29.79,29.67,4,0,0,0.00
2013-8-20,90.0,79.3,72.7,89.4,78.7,72.1,98,98,98,29.81,29.72,3,0,0,0.39
2013-8-21,93.4,79.8,75.4,92.7,79.2,74.8,98,98,98,29.89,29.78,5,0,0,0.00
2013-8-22,92.5,80.5,73.2,91.8,79.9,72.6,98,98,98,29.84,29.71,3,0,0,0.01
2013-8-23,86.4,78.5,73.8,85.8,77.9,73.2,98,98,98,29.76,29.67,4,0,0,0.06
2013-8-24,80.6,76.6,74.1,80.0,76.0,73.5,98,98,98,29.83,29.69,2,0,0,0.93
2013-8-25,86.2,78.0,74.5,85.6,77.4,73.9,98,98,98,29.87,29.77,5,0,0,0.02
2013-8-26,89.6,79.2,72.0,89.0,78.6,71.4,98,98,98,29.88,29.76,4,0,0,0.00
2013-8-27,90.3,75.9,65.7,89.7,75.3,65.1,98,98,98,29.81,29.70,4,0,0,0.00
2013-8-28,91.8,76.8,65.5,91.2,76.2,64.9,98,98,98,29.77,29.66,4,0,0,0.00
2013-8-29,94.6,79.0,68.2,93.9,78.4,67.6,98,98,98,29.76,29.70,5,0,0,0.00
2013-8-30,94.3,79.7,69.8,93.6,79.0,69.2,98,98,98,29.78,29.65,3,0,0,0.00
2013-8-31,94.3,81.1,71.8,93.6,80.5,71.2,98,98,98,29.72,29.62,4,0,0,0.00
2013-9-1,94.3,82.8,73.9,93.6,82.2,73.3,98,98,98,29.69,29.60,5,0,0,0.00
2013-9-2,94.1,83.7,76.3,93.4,83.1,75.7,98,98,98,29.75,29.61,4,0,0,0.00
2013-9-3,96.1,81.3,73.0,95.4,80.7,72.4,98,98,98,29.72,29.60,2,0,0,0.80
2013-9-4,94.3,80.5,72.5,93.6,79.9,71.9,98,98,98,29.80,29.69,4,0,0,0.00
2013-9-5,90.1,80.7,74.3,89.5,80.1,73.7,98,98,98,29.85,29.75,7,0,0,0.00
2013-9-6,96.1,81.5,73.6,95.4,80.9,73.0,98,98,98,29.85,29.70,2,0,0,0.00
2013-9-7,95.4,80.7,72.0,93.0,80.1,71.4,98,98,93,29.77,29.66,2,0,0,0.00
2013-9-8,95.2,79.3,71.1,94.5,78.7,70.5,98,98,98,29.75,29.68,2,0,0,0.20
2013-9-9,95.2,80.3,71.4,94.5,79.7,70.8,98,98,98,29.79,29.70,4,0,0,0.00
2013-9-10,95.4,80.2,72.0,94.7,79.6,71.4,98,98,98,29.86,29.75,3,0,0,0.10
2013-9-11,93.4,80.3,72.5,92.7,79.7,71.9,98,98,98,29.86,29.73,4,0,0,0.00
2013-9-12,95.9,79.9,69.6,95.2,79.3,69.0,98,98,98,29.79,29.64,3,0,0,0.00
2013-9-13,94.5,80.7,70.9,91.8,80.1,70.3,98,98,92,29.65,29.49,3,0,0,0.00
2013-9-14,87.8,78.3,71.4,87.2,77.7,70.8,98,98,98,29.70,29.56,5,0,0,0.00
2013-9-15,92.1,78.7,67.3,91.4,78.1,66.7,98,98,98,29.78,29.69,4,0,0,0.00
2013-9-16,92.8,80.0,72.0,92.1,79.4,71.4,98,98,98,29.79,29.68,5,0,0,0.00
2013-9-17,92.8,79.6,72.1,92.1,79.0,71.5,98,98,98,29.79,29.64,4,0,0,0.06
2013-9-18,87.6,78.7,73.9,87.0,78.1,73.3,98,98,98,29.78,29.69,4,0,0,0.02
2013-9-19,89.4,79.6,74.5,88.8,79.0,73.9,98,98,98,29.80,29.69,5,1,0,0.00
2013-9-20,91.2,80.0,73.8,90.6,79.4,73.2,98,98,98,29.75,29.55,6,1,0,0.98
2013-9-21,80.6,77.9,72.0,80.0,77.3,71.4,98,98,98,29.57,29.44,1,0,0,0.46
2013-9-22,80.2,73.4,69.3,79.6,72.8,68.7,98,98,98,29.54,29.45,7,1,0,0.05
2013-9-23,90.3,77.1,64.8,89.7,76.5,64.2,98,98,98,29.59,29.50,4,0,0,0.00
2013-9-24,90.1,79.4,74.8,89.5,78.8,74.2,98,98,98,29.58,29.44,5,0,0,2.05
2013-9-25,88.7,77.5,71.4,88.1,76.9,70.8,98,98,98,29.55,29.47,6,0,0,0.00
2013-9-26,89.4,76.1,66.2,88.8,75.5,65.6,98,98,92,29.67,29.52,3,0,0,0.00
2013-9-27,85.6,75.3,68.4,85.0,74.7,67.8,98,98,98,29.76,29.63,4,0,0,0.00
2013-9-28,86.0,73.0,63.3,85.4,72.4,62.7,98,98,98,29.80,29.71,4,0,0,0.00
2013-9-29,86.7,73.4,64.4,86.1,72.8,63.8,98,98,98,29.77,29.67,4,0,0,0.00
2013-9-30,84.7,74.7,68.9,84.1,74.1,68.3,98,98,98,29.71,29.62,1,0,0,0.01
2013-10-1,90.7,76.7,69.1,90.1,76.1,68.5,98,98,98,29.75,29.66,4,0,0,0.19
2013-10-2,85.5,77.1,72.9,84.9,76.5,72.3,98,98,98,29.77,29.67,2,0,0,0.09
2013-10-3,91.6,78.8,72.7,91.0,78.2,72.1,98,98,98,29.75,29.64,9,0,0,0.03
2013-10-4,91.9,79.4,72.7,91.0,78.8,72.1,98,98,98,29.75,29.68,9,0,0,0.01
2013-10-5,89.6,79.5,73.4,89.0,78.9,72.8,98,98,98,29.74,29.64,7,1,0,0.02
2013-10-6,82.8,76.0,69.1,82.2,75.4,68.5,98,98,98,29.63,29.48,7,0,0,2.32
2013-10-17,86.2,74.8,66.4,85.6,72.5,-99.9,98,96,98,29.69,29.59,4,-17,0,0.00
2013-10-18,78.4,68.2,63.0,77.8,67.6,62.4,98,98,98,29.75,29.61,6,1,0,0.00
2013-10-19,69.6,64.2,59.4,69.0,63.6,58.8,98,98,98,29.73,29.60,2,0,0,0.44
2013-10-20,76.8,63.2,54.3,76.2,62.6,53.7,98,98,98,29.79,29.65,4,0,0,0.00
2013-10-21,73.8,64.2,55.9,73.2,63.6,55.3,98,98,98,29.76,29.66,0,0,0,0.00
2013-10-22,81.5,68.5,59.5,79.6,66.6,58.9,98,94,61,29.67,29.56,1,0,0,0.00
2013-10-23,75.4,61.4,49.8,69.4,50.4,-33.4,98,81,1,29.83,29.66,7,1,0,0.00
2013-10-24,79.7,59.3,43.9,72.7,54.1,25.6,98,88,14,29.95,29.82,4,0,0,0.00
2013-10-25,68.7,56.7,45.0,60.9,50.5,29.9,98,84,25,30.10,29.91,10,1,0,0.00
2013-10-26,76.3,54.7,39.9,64.5,37.5,-34.1,98,78,1,30.03,29.87,0,0,0,0.00
2013-10-27,79.0,60.7,44.4,78.0,60.1,43.9,98,98,96,29.89,29.79,1,0,0,0.00
2013-10-28,83.8,66.5,54.1,83.2,65.9,53.5,98,98,98,29.92,29.81,2,0,0,0.01
2013-10-29,82.8,67.8,57.0,82.2,67.2,56.4,98,98,98,29.97,29.87,3,0,0,0.00
2013-10-30,81.3,70.3,61.3,80.7,69.7,60.7,98,98,98,29.91,29.76,4,0,0,0.00
2013-10-31,80.6,75.9,70.9,80.0,75.3,70.3,98,98,98,29.75,29.54,6,1,0,0.48
2013-11-1,82.4,69.2,54.3,81.8,68.6,53.7,98,98,98,29.64,29.50,6,0,0,0.02
2013-11-2,78.4,61.2,49.3,69.9,52.6,31.5,98,80,20,29.87,29.63,5,0,0,0.00
2013-11-3,71.1,54.4,43.5,62.5,46.8,28.8,98,82,22,29.97,29.85,4,0,0,0.00
2013-11-4,75.7,60.1,43.7,73.8,59.3,43.2,98,97,75,30.00,29.90,4,0,0,0.00
2013-11-5,77.4,66.0,60.6,76.8,65.4,60.0,98,98,98,29.98,29.85,4,0,0,0.00
2013-11-6,83.7,69.4,57.9,83.1,68.8,57.3,98,98,98,29.86,29.75,3,0,0,0.00
2013-11-7,70.2,60.1,48.7,69.6,59.2,47.4,98,97,73,30.00,29.75,9,2,0,0.03
2013-11-8,66.0,54.8,42.3,52.4,18.6,-39.7,98,56,1,30.05,29.91,9,1,0,0.00
2013-11-9,78.4,58.4,40.8,74.2,57.2,40.3,98,96,63,30.00,29.87,5,0,0,0.00
2013-11-10,77.0,62.5,52.2,70.5,57.9,41.5,98,88,31,29.99,29.87,4,0,0,0.00
2013-11-11,81.0,59.8,44.8,67.8,48.2,-28.2,98,79,1,29.98,29.85,2,0,0,0.00
2013-11-12,50.2,46.6,41.5,49.7,43.0,24.3,98,89,50,30.20,29.90,8,1,0,0.00
2013-11-13,40.8,35.1,31.5,38.7,33.3,25.0,98,94,53,30.19,30.15,5,0,0,0.00
2013-11-14,66.2,51.4,32.5,61.1,42.7,22.0,98,77,33,30.15,29.85,5,1,0,0.00
2013-11-15,76.8,63.1,56.5,76.2,62.5,55.9,98,98,98,29.86,29.70,4,0,0,0.61
2013-11-16,77.0,69.5,63.7,76.4,68.9,63.1,98,98,98,29.79,29.67,1,0,0,0.01
2013-11-17,81.1,74.0,69.8,80.5,73.4,69.2,98,98,98,29.70,29.61,4,0,0,0.83
2013-11-18,74.3,67.2,55.6,73.7,63.1,38.9,98,88,47,29.80,29.63,8,0,0,0.40
2013-11-19,64.6,53.5,43.2,53.2,35.6,-38.5,98,69,1,29.89,29.76,6,0,0,0.00
2013-11-20,76.1,55.5,38.7,72.3,53.5,38.2,98,94,54,29.88,29.75,0,0,0,0.00
2013-11-21,71.6,63.4,55.9,71.0,62.8,55.3,98,98,98,29.94,29.84,2,0,0,0.00
2013-11-22,79.7,69.2,61.2,79.1,68.6,60.6,98,98,98,29.92,29.83,3,0,0,0.18
2013-11-23,66.4,59.9,48.0,65.8,59.3,47.5,98,98,98,30.02,29.86,9,1,0,0.00
2013-11-24,54.0,45.4,37.8,47.7,11.8,-46.6,98,46,1,30.11,30.00,9,2,0,0.00
2013-11-25,66.9,49.8,36.5,66.3,47.9,28.2,98,93,68,30.04,29.54,8,1,0,0.39
2013-11-26,69.3,52.3,43.0,68.7,51.7,42.5,98,98,98,29.68,29.43,12,2,0,2.24
2013-11-27,50.4,40.1,29.8,42.7,23.5,-53.3,98,65,1,30.14,29.68,10,2,0,0.01
2013-11-28,51.8,36.2,27.1,35.3,14.0,-47.4,98,64,1,30.26,30.11,1,0,0,0.00
2013-11-29,62.1,40.4,25.9,43.7,6.5,-57.1,98,60,1,30.28,30.14,2,0,0,0.00
2013-11-30,72.0,46.8,29.5,57.1,28.0,-55.3,98,66,1,30.19,29.98,0,0,0,0.00
2013-12-1,72.1,52.8,36.0,63.8,46.1,-42.4,98,85,1,30.02,29.73,0,0,0,0.00
2013-12-2,74.3,59.3,46.6,61.8,50.8,-39.9,98,81,1,29.71,29.49,0,0,0,0.00
2013-12-3,73.9,66.6,59.9,73.3,66.0,59.3,98,98,98,29.55,29.44,3,0,0,0.04
2013-12-4,79.0,71.7,67.1,78.4,71.1,66.5,98,98,98,29.67,29.53,1,0,0,0.40
2013-12-5,76.5,73.0,70.2,75.9,72.4,69.6,98,98,98,29.73,29.63,8,0,0,0.04
2013-12-6,77.4,69.3,48.9,76.8,68.7,48.4,98,98,98,29.86,29.65,5,1,0,0.80
2013-12-7,49.3,42.6,40.5,48.8,27.3,-52.6,98,82,1,30.02,29.86,5,1,0,0.18
2013-12-8,58.6,50.8,42.1,58.0,50.2,41.6,98,98,74,29.97,29.76,0,0,0,0.00
2013-12-9,67.3,60.2,55.8,66.7,40.5,-42.6,98,76,1,29.86,29.75,1,0,0,0.12
2013-12-10,58.5,45.2,34.9,57.9,27.7,-56.3,98,76,1,30.10,29.75,10,2,0,0.21
2013-12-11,61.9,47.3,33.1,52.6,1.7,-57.4,98,34,1,30.15,30.04,0,0,0,0.00
2013-12-12,57.4,45.3,31.6,37.8,16.9,-45.8,98,48,9,30.25,30.12,6,1,0,0.00
2013-12-13,65.1,48.2,29.1,58.9,40.0,12.1,98,75,44,30.12,29.74,2,0,0,0.00
2013-12-14,77.4,63.9,49.8,76.8,45.9,-46.8,98,80,1,29.73,29.54,7,0,0,0.11
2013-12-15,52.0,43.4,32.4,47.2,27.9,-57.8,98,70,1,30.04,29.73,10,2,0,0.00
2013-12-16,65.5,41.8,29.5,47.3,14.7,-56.8,98,64,1,30.10,29.97,0,0,0,0.00
2013-12-17,67.6,45.0,30.6,47.9,19.1,-57.3,98,66,1,30.09,29.96,1,0,0,0.00
2013-12-18,69.3,46.9,33.1,50.4,24.1,-55.3,98,66,1,30.13,29.98,0,0,0,0.00
2013-12-19,74.5,55.2,34.5,67.8,37.9,-56.4,98,75,1,29.99,29.79,1,0,0,0.00
2013-12-20,75.2,68.0,60.1,74.6,66.1,-34.9,98,96,1,29.83,29.68,8,0,0,0.00
2013-12-21,76.5,73.5,70.3,75.9,72.9,69.7,98,98,98,29.69,29.52,6,1,0,0.01
2013-12-22,72.5,61.1,56.5,71.9,60.5,55.9,98,98,98,29.85,29.54,8,0,0,3.87
2013-12-23,57.7,47.1,36.1,57.1,32.3,-48.4,98,81,1,30.17,29.82,9,2,0,0.17
2013-12-24,53.8,38.7,30.6,35.1,11.7,-58.8,98,44,1,30.26,30.11,8,1,0,0.00
2013-12-25,51.4,38.8,27.0,29.5,5.5,-61.2,77,36,6,30.16,30.04,4,0,0,0.00
2013-12-26,54.3,43.2,34.3,43.2,20.2,-52.8,98,50,1,30.12,30.01,2,0,0,0.00
2013-12-27,62.4,50.3,40.8,42.2,19.1,-41.2,87,45,1,30.13,29.97,6,0,0,0.00
2013-12-28,50.5,48.3,44.8,50.0,39.9,-50.1,98,88,1,29.99,29.64,4,0,0,1.89
2013-12-29,62.8,51.1,43.2,55.5,39.8,-49.3,98,81,1,29.85,29.67,3,0,0,0.06
2013-12-30,58.3,48.7,39.9,57.1,40.4,-46.5,98,89,1,30.04,29.84,0,0,0,0.00
2013-12-31,49.5,45.0,42.4,49.0,-6.3,-51.6,98,36,1,30.16,30.02,3,0,0,0.06
2014-1-1,61.0,52.1,42.8,60.4,39.8,-44.3,98,86,1,30.07,29.75,0,0,0,0.12
2014-1-2,60.3,52.2,34.9,59.7,38.9,-41.3,98,69,1,30.08,29.64,10,3,0,0.48